BMCB-29 Weather Reports


time (UTC)temp
C
wind
direction
speed
KPH
gust
KPH
rain 1hr
cm
rain 24hr
cm
rain mn
cm
humidity
%
barometer
mb
20260505124047 13 0 0.0 0.0 0.00 0.10 0.00 91 1010.8
20260505122045 13 0 0.0 0.0 0.00 0.10 0.00 90 1010.7
20260505120047 14 0 0.0 0.0 0.00 0.10 0.00 89 1010.7
20260505114046 14 0 0.0 0.0 0.00 0.10 0.00 88 1010.8
20260505113045 14 0 0.0 0.0 0.00 0.10 0.00 89 1010.9
20260505112046 14 0 0.0 0.0 0.00 0.10 0.00 90 1010.9
20260505111045 14 0 0.0 0.0 0.00 0.10 0.00 89 1010.9
20260505102041 14 0 0.0 0.0 0.00 0.15 0.00 90 1011.4
20260505101046 13 0 0.0 0.0 0.00 0.15 0.00 90 1011.4
20260505100042 13 0 0.0 0.0 0.00 0.15 0.00 90 1011.4
20260505095044 14 0 0.0 0.0 0.00 0.15 0.00 91 1011.3
20260505094043 14 0 0.0 0.0 0.00 0.15 0.00 90 1011.3
20260505093044 14 0 0.0 0.0 0.00 0.15 0.00 89 1011.3
20260505092043 14 0 0.0 0.0 0.00 0.15 0.00 89 1011.3
20260505091046 14 0 0.0 0.0 0.00 0.15 0.00 89 1011.3
20260505090044 14 0 0.0 0.0 0.00 0.15 0.00 90 1011.3
20260505084044 13 0 0.0 0.0 0.00 0.15 0.00 92 1011.5
20260505083046 13 0 0.0 0.0 0.00 0.15 0.00 93 1011.5
20260505082044 13 0 0.0 0.0 0.00 0.15 0.00 96 1011.6
20260505080052 12 0 0.0 0.0 0.00 0.15 0.00 10 1011.7
20260505074045 12 0 0.0 0.0 0.00 0.15 0.00 10 1011.8
20260505073043 12 0 0.0 0.0 0.00 0.15 0.00 10 1011.9
20260505072043 12 0 0.0 0.0 0.00 0.15 0.00 10 1011.9
20260505071044 11 0 0.0 0.0 0.00 0.15 0.00 10 1012.0
20260505065044 11 0 0.0 0.0 0.00 0.15 0.00 10 1012.2
20260505064038 11 0 0.0 0.0 0.00 0.15 0.00 10 1012.2
20260505063041 11 0 0.0 0.0 0.00 0.15 0.00 10 1012.2
20260505062037 11 0 0.0 0.0 0.00 0.15 0.00 10 1012.3
20260505061043 11 0 0.0 0.0 0.00 0.15 0.00 10 1012.3
20260505060042 11 0 0.0 0.0 0.00 0.15 0.00 10 1012.3
20260505055045 10 0 0.0 0.0 0.00 0.15 0.00 10 1012.3
20260505054045 10 0 0.0 0.0 0.00 0.15 0.00 10 1012.3
20260505053041 10 0 0.0 0.0 0.00 0.15 0.00 10 1012.2
20260505051043 10 0 0.0 0.0 0.00 0.15 0.00 10 1012.2
20260505041040 10 0 0.0 0.0 0.00 0.15 0.00 10 1012.4
20260505040041 10 0 0.0 0.0 0.00 0.15 0.00 10 1012.4
20260505035044 10 0 0.0 0.0 0.00 0.15 0.00 10 1012.4
20260505034042 10 0 0.0 0.0 0.00 0.15 0.00 10 1012.5
20260505033044 10 0 0.0 0.0 0.00 0.15 0.00 10 1012.6
20260505032042 10 0 0.0 0.0 0.00 0.15 0.00 10 1012.7
20260505031043 10 0 0.0 0.0 0.00 0.15 0.00 10 1012.9
20260505030042 10 0 0.0 0.0 0.00 0.15 0.00 10 1013.0
20260505025041 10 0 0.0 0.0 0.00 0.15 0.00 10 1013.0
20260505024043 10 0 0.0 0.0 0.00 0.15 0.00 10 1013.0
20260505023045 10 0 0.0 0.0 0.00 0.15 0.00 10 1013.0
20260505022044 10 0 0.0 0.0 0.00 0.15 0.00 10 1013.1
20260505021044 10 0 0.0 0.0 0.00 0.15 0.00 10 1013.1
20260505020044 10 0 0.0 0.0 0.00 0.15 0.00 10 1013.2
20260505015044 10 0 0.0 0.0 0.00 0.15 0.00 10 1013.2
20260505014043 10 0 0.0 0.0 0.00 0.15 0.00 10 1013.2
20260505013042 10 0 0.0 0.0 0.00 0.15 0.00 10 1013.2
20260505012042 10 0 0.0 0.0 0.00 0.15 0.00 10 1013.1
20260505011042 10 0 0.0 0.0 0.00 0.15 0.00 10 1013.1
20260505010044 10 0 0.0 0.0 0.00 0.15 0.00 10 1013.1
20260505004042 10 0 0.0 0.0 0.00 0.15 0.00 10 1013.2
20260505001043 10 0 0.0 0.0 0.00 0.15 0.00 10 1013.6
20260504235046 10 0 0.0 0.0 0.00 0.15 0.00 10 1013.7
20260504234046 10 0 0.0 0.0 0.00 0.15 0.00 10 1013.7
20260504233044 10 0 0.0 0.0 0.00 0.15 0.00 10 1013.9
20260504232046 11 0 0.0 0.0 0.00 0.15 0.00 10 1014.0
20260504231045 11 0 0.0 0.0 0.00 0.15 0.00 10 1014.0
20260504225044 10 0 0.0 0.0 0.00 0.15 0.00 10 1014.2
20260504223043 11 0 0.0 0.0 0.00 0.15 0.00 10 1014.2
20260504222047 11 0 0.0 0.0 0.00 0.15 0.00 10 1014.3
20260504221046 11 0 0.0 0.0 0.00 0.15 0.00 10 1014.5
20260504220045 11 0 0.0 0.0 0.00 0.15 0.00 10 1014.5
20260504215045 11 0 0.0 0.0 0.00 0.15 0.15 10 1014.5
20260504214049 11 0 0.0 0.0 0.00 0.15 0.15 10 1014.5
20260504213045 11 0 0.0 0.0 0.00 0.15 0.15 10 1014.7
20260504211045 11 0 0.0 0.0 0.00 0.15 0.15 10 1014.7
20260504210048 12 0 0.0 0.0 0.00 0.15 0.15 10 1014.8
20260504205046 12 0 0.0 0.0 0.00 0.15 0.15 99 1014.8
20260504204047 12 0 0.0 0.0 0.00 0.15 0.15 99 1014.9
20260504203049 12 0 0.0 0.0 0.00 0.15 0.15 99 1014.9
20260504201051 12 0 0.0 0.0 0.00 0.15 0.15 98 1014.9
20260504200050 12 0 0.0 0.0 0.00 0.15 0.15 98 1014.9
20260504195048 12 0 0.0 0.0 0.00 0.15 0.15 97 1014.8
20260504194047 12 0 0.0 0.0 0.00 0.15 0.15 96 1014.7
20260504193043 12 0 0.0 0.0 0.00 0.15 0.15 95 1014.7
20260504192045 12 0 0.0 0.0 0.00 0.15 0.15 94 1014.5
20260504191049 12 0 0.0 0.0 0.00 0.15 0.15 93 1014.4
20260504190047 12 0 0.0 0.0 0.00 0.15 0.15 94 1014.4
20260504185048 12 0 0.0 0.0 0.00 0.15 0.15 94 1014.4
20260504184043 13 0 0.0 0.0 0.00 0.15 0.15 92 1014.3
20260504183046 13 0 0.0 0.0 0.00 0.15 0.15 93 1014.2
20260504181047 13 0 0.0 0.0 0.00 0.15 0.15 93 1014.2
20260504180046 13 0 0.0 0.0 0.00 0.15 0.15 94 1014.3
20260504175046 13 0 0.0 0.0 0.00 0.15 0.15 94 1014.4
20260504174049 13 0 0.0 0.0 0.00 0.15 0.15 93 1014.4
20260504173046 13 0 0.0 0.0 0.00 0.15 0.15 91 1014.5
20260504172045 14 0 0.0 0.0 0.00 0.15 0.15 90 1014.5
20260504171045 14 0 0.0 0.0 0.00 0.15 0.15 89 1014.5
20260504151045 15 0 0.0 0.0 0.05 0.15 0.15 90 1014.8